Home > Weather > Gambier Islands > Past weeks

Flag for French Polynesia Weather for the Past 2 Weeks in Gambier Islands, French Polynesia

Now
77 °F

Mild.


Feels Like: 77 °F
Forecast: 77 / 83 °F
Wind: 2 mph from Northeast

Location: Rikitea

Current Time: Feb 11, 2016 at 4:10:39 AM

Latest Report: Feb 11, 2016 at 3:00 AM


Visibility: N/A

Pressure: 29.96 "Hg

Humidity: 92%

Dew point: 74 °F

Location of Gambier IslandsLocation

Historic Weather in Gambier Islands — Graph

°F

Gambier Islands Temperature Yesterday

Maximum temperature yesterday: 85 °F (at 11:00 AM)
Minimum temperature yesterday: 77 °F (at 4:00 AM)
Average temperature yesterday: 80 °F

High & Low Weather Summary for the Past Weeks

 TemperatureHumidityPressure
High85 °F (Feb 10, 11:00 AM)100% (Jan 27, 4:00 AM)30.11 "Hg (Jan 27, 4:00 AM)
Low72 °F (Jan 30, 8:00 PM)64% (Feb 5, 2:00 PM)29.92 "Hg (Jan 27, 3:00 AM)
Average78 °F88%30.01 "Hg
* Reported Jan 27 2:00 AM — Feb 11 2:00 AM, Gambier Islands, Weather by CustomWeather, © 2016

Note: Actual official high and low records may vary slightly from our data, if they occured in-between our weather recording intervals... More about our weather records

Advertising

Gambier Islands Weather History for the Previous 24 Hours

 ConditionsComfort  
Time TempWeatherWind HumidityBarometerVisibility
2:00 AM
Thu, Feb 11
77 °FWarm.7 mph93%29.98 "HgN/A
1:00 AM78 °FWarm.2 mph92%29.99 "HgN/A
12:00 AM77 °FWarm.3 mph90%30.01 "HgN/A
11:00 PM
Wed, Feb 10
78 °FWarm.2 mph89%30.03 "HgN/A
10:00 PM78 °FWarm.5 mph91%30.05 "HgN/A
9:00 PM78 °FWarm.8 mph92%30.04 "HgN/A
7:00 PM78 °FWarm.8 mph89%30.02 "HgN/A
6:00 PM80 °FWarm.6 mph83%30.00 "HgN/A
5:00 PM80 °FPassing clouds.6 mph82%30.00 "Hg22 mi
4:00 PM82 °FPartly sunny.3 mph79%30.00 "Hg22 mi
3:00 PM82 °FPartly sunny.3 mph80%30.00 "Hg22 mi
2:00 PM83 °FPartly sunny.3 mph81%30.02 "Hg22 mi
1:00 PM85 °FScattered clouds.5 mph72%30.04 "Hg22 mi
11:00 AM85 °FScattered clouds.7 mph72%30.07 "Hg22 mi
10:00 AM83 °FScattered clouds.9 mph75%30.08 "Hg22 mi
9:00 AM83 °FScattered clouds.6 mph78%30.08 "Hg22 mi
8:00 AM82 °FScattered clouds.6 mph82%30.07 "Hg22 mi
7:00 AM80 °FScattered clouds.3 mph88%30.05 "Hg19 mi
6:00 AM77 °FPartly sunny.5 mph93%30.04 "Hg16 mi
5:00 AM77 °FWarm.3 mph92%30.03 "HgN/A
4:00 AM77 °FWarm.6 mph93%30.03 "HgN/A
Weather by CustomWeather, © 2016

See weather overviewHow to use our weather pages